Hourly Weather Roundup
Issued by NWS Central Illinois

Home | Current Version | Previous Version | Text Only | Print | Product List | Glossary On
Versions: 1 2 3 4 5 6 7 8 9 10 11 12 13 14 15 16 17 18 19 20 21 22 23 24 25 26 27 28 29 30 31 32 33 34 35 36 37 38 39 40 41 42 43 44 45 46 47 48 49 50
000
NZUS43 KILX 242310
HWRILX

AREA WEATHER ROUNDUP
NATIONAL WEATHER SERVICE, LINCOLN IL
600 PM CDT FRI OCT 24 2014


CITY           SKY/WX    TMP DP  RH WIND       PRES   REMARKS
BLOOMINGTON    CLEAR     60  52  75 SW7       30.01R
CHAMPAIGN      PTCLDY    60  54  80 SW8       30.01S
DECATUR        CLEAR     60  54  80 S7        30.01F
FLORA          PTCLDY    64  51  64 W3        30.04S
GALESBURG      CLOUDY    65  54  68 SE6       29.93F
JACKSONVILLE   PTCLDY    68  50  51 S6        29.98S
LACON          MOCLDY    60  49  66 CALM      29.96F
LAWRENCEVILLE  PTCLDY    65  52  62 SW5       30.03S
LITCHFIELD     MOCLDY    62  50  65 S6        30.01S
$$


CITY           SKY/WX    TMP DP  RH WIND       PRES   REMARKS
LINCOLN        PTCLDY    62  54  73 S3        29.97S
MACOMB         MOCLDY    66  53  62 S8        29.96F
MATTOON        PTCLDY    62  53  72 W5        30.02S
MT CARMEL AP   PTCLDY    68  52  56 SW5       30.03S
OLNEY-NOBLE AP CLEAR     63  52  67 CALM      30.03S
PARIS          PTCLDY    63  53  69 W5        30.02S
PEORIA         MOCLDY    63  51  65 SE5       29.97S
PONTIAC        PTCLDY    64  50  61 SW6       29.99R
RANTOUL        PTCLDY    63  54  71 SW7       30.00R
ROBINSON       PTCLDY    67  54  61 S5        30.03S
SPRINGFIELD    PTCLDY    65  51  60 S6        29.99S
TAYLORVILLE    PTCLDY    59  54  82 S6        30.01S
$$

...REGIONAL REPORTS...


CITY           SKY/WX    TMP DP  RH WIND       PRES   REMARKS
CHICAGO O`HARE MOCLDY    63  45  51 S8        29.94F
KANKAKEE       PTCLDY    62  45  53 SW5       29.98S
MOLINE         CLOUDY    67  53  61 S8        29.90F
MOUNT VERNON   CLEAR     61  50  67 CALM      30.05S
PITTSFIELD     PTCLDY    68  51  54 S5        29.99S
QUINCY         PTCLDY    67  55  65 S8        29.95F
ROCKFORD       MOCLDY    58  48  69 S9        29.95F
$$


CITY           SKY/WX    TMP DP  RH WIND       PRES   REMARKS
BURLINGTON     PTCLDY    64  58  80 S9        29.91F
CEDAR RAPIDS   CLOUDY    60  60 100 S7        29.92R FOG
DES MOINES     CLOUDY    66  60  81 SW5       29.90R
KIRKSVILLE     MOCLDY    67  61  81 S9        29.93F
OTTUMWA        CLOUDY    65  60  84 SW6       29.91S
ST LOUIS       MOCLDY    71  49  45 S5        30.00F
$$


CITY           SKY/WX    TMP DP  RH WIND       PRES   REMARKS
TERRE HAUTE    MOCLDY    63  51  65 S5        30.02S
EVANSVILLE     PTCLDY    64  53  67 S3        30.04F
INDIANAPOLIS   MOCLDY    59  51  75 W8        30.02R
LAFAYETTE      PTCLDY    60  51  72 CALM      30.00S
MADISON        MOCLDY    60  50  69 S8        29.90F
MILWAUKEE      MOCLDY    58  48  69 SW5       29.94S
$$





USA.gov is the U.S. government's official web portal to all federal, state and local government web resources and services.